Weather History for Doncaster Sheffield, United Kingdom

Change the Weather History Date:

Monday, December 3, 2012

  Actual Average Record
Temperature  
Mean Temperature 40 °F -  
Max Temperature 46 °F - - ()
Min Temperature 33 °F - - ()
Degree Days  
Heating Degree Days 26    
Moisture  
Dew Point 36 °F    
Average Humidity 84    
Maximum Humidity 100    
Minimum Humidity 71    
Precipitation  
Precipitation 0.00 in - - ()
Sea Level Pressure  
Sea Level Pressure 29.63 in    
Wind  
Wind Speed 10 mph ()    
Max Wind Speed 21 mph    
Max Gust Speed 32 mph    
Visibility 5.3 miles    
Events Fog , Rain    
T = Trace of Precipitation, MM = Missing Value Source: Averaged Metar Reports

Daily Weather History Graph

Daily Weather History Graph

Search for Another Location

Airport:

Trip Planner

Search our weather history database for the weather conditions in past years. The results will help you decide how hot, cold, wet, or windy it might be!

Date:

Astronomy

Dec. 03, 2012 Rise Set
Actual Time 8:00 AM GMT 3:47 PM GMT
Civil Twilight 7:18 AM GMT 4:29 PM GMT
Nautical Twilight 6:33 AM GMT 5:13 PM GMT
Astronomical Twilight 5:51 AM GMT 5:56 PM GMT
Moon 8:42 PM GMT (12/3) 10:56 AM GMT (12/3)
Length of Visible Light 9h 10m
Length of Day
7h 47m
Waning Gibbous, 80% of the Moon is Illuminated
Dec 3
Waning Gibbous
Dec 6
Last Quarter
Dec 13
New
Dec 20
First Quarter
Dec 28
Full

Hourly Weather History & Observations

Time (GMT) Temp. Windchill Dew Point Humidity Pressure Visibility Wind Dir Wind Speed Gust Speed Precip Events Conditions
12:20 AM 33.8 °F 27.7 °F 32.0 °F 93% 29.86 in 5.0 mi SSE 6.9 mph - N/A Rain Light Rain
12:50 AM 35.6 °F 29.9 °F 33.8 °F 93% 29.86 in 4.3 mi SE 6.9 mph - N/A Rain Light Rain
5:20 AM 35.6 °F 31.7 °F 35.6 °F 100% 29.68 in 1.9 mi SE 4.6 mph - N/A Rain Light Rain
5:50 AM 37.4 °F 32.8 °F 35.6 °F 93% 29.65 in 1.9 mi SE 5.8 mph - N/A   Mostly Cloudy
6:20 AM 35.6 °F 31.7 °F 33.8 °F 93% 29.65 in 1.6 mi SSE 4.6 mph - N/A   Mostly Cloudy
6:50 AM 33.8 °F - 33.8 °F 100% 29.65 in 0.5 mi Variable 2.3 mph - N/A Fog Fog
7:20 AM 35.6 °F - 33.8 °F 93% 29.65 in 0.4 mi SW 2.3 mph - N/A Fog Fog
7:50 AM 33.8 °F 30.8 °F 32.0 °F 93% 29.65 in 0.4 mi South 3.5 mph - N/A Fog Fog
8:20 AM 37.4 °F 31.4 °F 35.6 °F 93% 29.65 in 6.2 mi WSW 8.1 mph - N/A   Partly Cloudy
9:20 AM 44.6 °F 39.7 °F 41.0 °F 87% 29.62 in 6.2 mi West 9.2 mph - N/A   Partly Cloudy
9:50 AM 44.6 °F 39.2 °F 42.8 °F 93% 29.65 in 6.2 mi West 10.4 mph - N/A   Scattered Clouds
10:20 AM 46.4 °F 40.7 °F 42.8 °F 87% 29.65 in 6.2 mi West 12.7 mph - N/A   Scattered Clouds
10:50 AM 46.4 °F 39.5 °F 42.8 °F 87% 29.65 in 6.2 mi West 17.3 mph - N/A   Scattered Clouds
11:20 AM 46.4 °F 39.5 °F 42.8 °F 87% 29.65 in 6.2 mi West 17.3 mph - N/A   Scattered Clouds
11:50 AM 46.4 °F 39.2 °F 39.2 °F 76% 29.65 in - West 18.4 mph - N/A   Clear
12:20 PM 46.4 °F 39.0 °F 37.4 °F 71% 29.65 in 6.2 mi West 19.6 mph - N/A   Scattered Clouds
12:50 PM 44.6 °F 37.2 °F 37.4 °F 76% 29.68 in 6.2 mi West 17.3 mph - N/A   Scattered Clouds
1:14 PM 44.6 °F 36.4 °F 37.4 °F 76% 29.65 in 6.2 mi West 20.7 mph 32.2 mph N/A   Partly Cloudy
1:20 PM 44.6 °F 36.6 °F 37.4 °F 76% 29.65 in 6.2 mi West 19.6 mph 32.2 mph N/A   Partly Cloudy
1:50 PM 44.6 °F 36.4 °F 35.6 °F 71% 29.65 in 6.2 mi West 20.7 mph - N/A   Partly Cloudy
2:20 PM 44.6 °F 37.8 °F 37.4 °F 76% 29.65 in 6.2 mi WSW 15.0 mph - N/A   Partly Cloudy
2:50 PM 44.6 °F 37.2 °F 37.4 °F 76% 29.62 in 6.2 mi West 17.3 mph - N/A   Partly Cloudy
3:20 PM 44.6 °F 38.1 °F 37.4 °F 76% 29.62 in 6.2 mi West 13.8 mph - N/A   Partly Cloudy
3:50 PM 42.8 °F 35.1 °F 35.6 °F 76% 29.62 in 6.2 mi West 16.1 mph - N/A   Partly Cloudy
4:20 PM 42.8 °F 35.8 °F 35.6 °F 76% 29.62 in 6.2 mi West 13.8 mph - N/A   Partly Cloudy
4:50 PM 42.8 °F 37.0 °F 35.6 °F 76% 29.62 in 6.2 mi West 10.4 mph - N/A   Partly Cloudy
5:20 PM 39.2 °F 33.0 °F 33.8 °F 81% 29.62 in - WSW 9.2 mph - N/A   Clear
5:50 PM 42.8 °F 35.8 °F 35.6 °F 76% 29.62 in - WSW 13.8 mph - N/A   Clear
6:20 PM 39.2 °F 33.0 °F 33.8 °F 81% 29.62 in 6.2 mi SW 9.2 mph - N/A   Partly Cloudy
6:50 PM 39.2 °F 32.5 °F 35.6 °F 87% 29.59 in 6.2 mi SW 10.4 mph - N/A   Partly Cloudy
7:20 PM 41.0 °F 33.5 °F 35.6 °F 81% 29.59 in 6.2 mi SW 13.8 mph - N/A   Partly Cloudy
7:50 PM 39.2 °F 33.0 °F 35.6 °F 87% 29.59 in 6.2 mi WSW 9.2 mph - N/A   Scattered Clouds
8:20 PM 39.2 °F 31.6 °F 35.6 °F 87% 29.59 in 6.2 mi SW 12.7 mph - N/A   Scattered Clouds
8:50 PM 41.0 °F 33.5 °F 35.6 °F 81% 29.56 in 6.2 mi SW 13.8 mph - N/A   Scattered Clouds
9:20 PM 39.2 °F 31.6 °F 35.6 °F 87% 29.56 in 6.2 mi WSW 12.7 mph - N/A   Partly Cloudy
9:50 PM 41.0 °F 32.5 °F 35.6 °F 81% 29.56 in 6.2 mi WSW 17.3 mph - N/A   Scattered Clouds
10:20 PM 39.2 °F 30.5 °F 35.6 °F 87% 29.56 in 6.2 mi WSW 16.1 mph - N/A   Partly Cloudy
10:50 PM 41.0 °F 32.8 °F 35.6 °F 81% 29.56 in 6.2 mi WSW 16.1 mph - N/A   Partly Cloudy
11:20 PM 41.0 °F 34.7 °F 35.6 °F 81% 29.56 in 6.2 mi WSW 10.4 mph - N/A   Partly Cloudy
11:50 PM 41.0 °F 32.2 °F 35.6 °F 81% 29.53 in 6.2 mi West 18.4 mph - N/A   Partly Cloudy